Regional Weather Roundup
Issued by NWS

Home | Current Version | Previous Version | Graphics & Text | Print | Product List | Glossary On
Versions: 1 2 3 4 5 6 7 8 9 10 11 12 13 14 15 16 17 18 19 20 21 22 23 24 25 26 27
000
ASUS45 KSLC 250710
RWRUT

UTAH REGIONAL WEATHER ROUNDUP
NATIONAL WEATHER SERVICE SALT LAKE CITY UT
100 AM MDT SAT OCT 25 2014

UTZ001>011-023>025-250800-

NORTHERN UTAH

CITY           SKY/WX    TMP DP  RH WIND       PRES   REMARKS
BRIGHAM CITY   CLEAR     45  36  72 CALM      30.09S
HILL AFB       CLEAR     59  28  30 SE13      30.11S
LOGAN          CLEAR     42  33  70 CALM      30.11R
OGDEN          CLEAR     58  29  33 S12       30.08S
PROVO AIRPORT  CLEAR     57  34  41 S12       30.15S
SALT LAKE CITY CLEAR     60  30  32 SE13      30.09R
VERNAL         CLEAR     45  33  63 W6        30.25S
WENDOVER       CLEAR     48  34  57 SW3       30.09R
HEBER CITY     CLEAR     34  28  80 CALM      30.22S
WEST JORDAN    CLEAR     61  36  39 SE13      30.13S

$$

UTZ012>022-026-027-250800-

SOUTHERN/CENTRAL UTAH

CITY           SKY/WX    TMP DP  RH WIND       PRES   REMARKS
BLANDING       PTCLDY    49  30  47 N8        30.37S
BRYCE CANYON   CLEAR     32  25  75 SW3       30.39S
CEDAR CITY     CLEAR     48  31  51 S5        30.23R
DELTA          CLEAR     54  26  34 S12       30.16R
HANKSVILLE       N/A     52  32  46 CALM      30.23S
MILFORD        CLEAR     54  32  43 SW15      30.17S
MOAB/CYNLANDS  CLEAR     54  33  45 CALM      30.20S
PRICE          CLEAR     49  32  52 N8        30.27F
ST GEORGE      SUNNY     64  34  32 S3        30.13R
KANAB            N/A     48  30  49 N8        30.26S

$$

REGIONAL REPORTS     COLORADO/ARIZONA

CITY           SKY/WX    TMP DP  RH WIND       PRES   REMARKS
CRAIG, CO      CLEAR     33  27  78 CALM      30.32S
GRAND JUNCTION CLEAR     50  34  54 E6        30.24S
RIFLE          CLEAR     43  33  68 E3        30.31S
MONTROSE       CLEAR     48  28  46 SE9       30.33S
CORTEZ         CLEAR     35  27  72 NE5       30.33S WCI  31
PAGE, AZ       CLEAR     58  35  42 CALM      30.20R
GRAND CANYON   CLEAR     34  22  61 CALM      30.35S
KINGMAN        CLEAR     66  37  34 SE12      30.13S
FLAGSTAFF      CLEAR     40  30  67 CALM      30.38F

$$

REGIONAL REPORTS    NEVADA/IDAHO/WYOMING

CITY           SKY/WX    TMP DP  RH WIND       PRES   REMARKS
LAS VEGAS, NV  CLEAR     71  39  31 S6        29.99S
ELY            CLEAR     51  28  41 S14       30.21F
ELKO           CLEAR     61  24  24 N6        30.04F
POCATELLO, ID  CLEAR     46  30  53 NE9       30.07S
BURLEY         CLEAR     43  35  73 CALM      30.00S
EVANSTON, WY   PTCLDY    51  20  29 S7        30.27F
ROCK SPRINGS   PTCLDY    46  27  47 S5        30.28S
KEMMERER       CLEAR     34  27  75 N8        30.29S WCI  27

$$



USA.gov is the U.S. government's official web portal to all federal, state and local government web resources and services.